Location: B�rgermoos
(47.6500°N, 9.0667°E)
Time: 18:29:33
(UTC+00:00)

A-11 Canister half - Pass Details

Date: 12 August 2021
Orbit: 1526 x 1683 km, 47.3° (Epoch: 20 September)

Event Time Altitude Azimuth Distance (km) Brightness Sun altitude
Rises 10:17:48 0° 265° (W) 4,930 11.5 54.0°
Reaches altitude 10° 10:20:58 10° 265° (W) 3,946 11.1 54.3°
Maximum altitude 10:31:11 89° 177° (S) 1,681 10.4 55.1°
Drops below altitude 10° 10:41:16 10° 90° (E) 3,895 11.4 55.7°
Sets 10:44:22 0° 91° (E) 4,864 11.8 55.9°
